Year,Month,Day,Hour,Minute,Value (Times are PST for windspeed in km/hr)
2011,06,13,00,00,3.20
2011,06,13,00,01,0.40
2011,06,13,00,02,0.00
2011,06,13,00,03,0.00
2011,06,13,00,04,2.20
2011,06,13,00,05,2.80
2011,06,13,00,06,6.70
2011,06,13,00,07,4.30
2011,06,13,00,08,4.00
2011,06,13,00,09,5.60
2011,06,13,00,10,1.50
2011,06,13,00,11,1.50
2011,06,13,00,12,3.00
2011,06,13,00,13,2.50
2011,06,13,00,14,2.80
2011,06,13,00,15,3.20
2011,06,13,00,16,2.30
2011,06,13,00,17,2.10
2011,06,13,00,18,1.80
2011,06,13,00,19,0.90
2011,06,13,00,20,1.80
2011,06,13,00,21,1.60
2011,06,13,00,22,0.20
2011,06,13,00,23,1.20
2011,06,13,00,24,0.90
2011,06,13,00,25,0.20
2011,06,13,00,26,0.20
2011,06,13,00,27,0.00
2011,06,13,00,28,1.70
2011,06,13,00,29,2.60
2011,06,13,00,30,6.40
2011,06,13,00,31,3.00
2011,06,13,00,32,1.70
2011,06,13,00,33,1.60
2011,06,13,00,34,1.50
2011,06,13,00,35,2.90
2011,06,13,00,36,1.60
2011,06,13,00,37,4.10
2011,06,13,00,38,0.60
2011,06,13,00,39,3.20
2011,06,13,00,40,3.00
2011,06,13,00,41,0.20
2011,06,13,00,42,0.50
2011,06,13,00,43,4.50
2011,06,13,00,44,0.80
2011,06,13,00,45,1.20
2011,06,13,00,46,0.20
2011,06,13,00,47,0.50
2011,06,13,00,48,3.10
2011,06,13,00,49,8.80
2011,06,13,00,50,5.40
2011,06,13,00,51,4.40
2011,06,13,00,52,5.10
2011,06,13,00,53,6.80
2011,06,13,00,54,8.40
2011,06,13,00,55,9.10
2011,06,13,00,56,7.70
2011,06,13,00,57,7.20
2011,06,13,00,58,9.80
2011,06,13,00,59,8.50
2011,06,13,01,00,6.30
2011,06,13,01,01,7.20
2011,06,13,01,02,6.10
2011,06,13,01,03,8.30
2011,06,13,01,04,8.00
2011,06,13,01,05,8.00
2011,06,13,01,06,11.90
2011,06,13,01,07,8.10
2011,06,13,01,08,11.00
2011,06,13,01,09,12.60
2011,06,13,01,10,10.80
2011,06,13,01,11,10.00
2011,06,13,01,12,11.70
2011,06,13,01,13,11.90
2011,06,13,01,14,13.60
2011,06,13,01,15,15.30
2011,06,13,01,16,12.90
2011,06,13,01,17,10.70
2011,06,13,01,18,15.30
2011,06,13,01,19,10.70
2011,06,13,01,20,9.80
2011,06,13,01,21,9.40
2011,06,13,01,22,6.10
2011,06,13,01,23,8.60
2011,06,13,01,24,6.70
2011,06,13,01,25,7.10
2011,06,13,01,26,6.60
2011,06,13,01,27,6.20
2011,06,13,01,28,4.90
2011,06,13,01,29,5.30
2011,06,13,01,30,4.70
2011,06,13,01,31,5.30
2011,06,13,01,32,3.70
2011,06,13,01,33,4.80
2011,06,13,01,34,2.60
2011,06,13,01,35,4.40
2011,06,13,01,36,1.90
2011,06,13,01,37,3.20
2011,06,13,01,38,1.90
2011,06,13,01,39,5.90
2011,06,13,01,40,8.10
2011,06,13,01,41,7.10
2011,06,13,01,42,3.10
2011,06,13,01,43,4.40
2011,06,13,01,44,3.30
2011,06,13,01,45,7.50
2011,06,13,01,46,6.50
2011,06,13,01,47,4.10
2011,06,13,01,48,6.10
2011,06,13,01,49,9.70
2011,06,13,01,50,9.50
2011,06,13,01,51,7.40
2011,06,13,01,52,8.60
2011,06,13,01,53,12.40
2011,06,13,01,54,8.90
2011,06,13,01,55,4.50
2011,06,13,01,56,4.80
2011,06,13,01,57,3.70
2011,06,13,01,58,9.60
2011,06,13,01,59,8.10
2011,06,13,02,00,8.40
2011,06,13,02,01,8.40
2011,06,13,02,02,6.80
2011,06,13,02,03,5.80
2011,06,13,02,04,5.50
2011,06,13,02,05,5.40
2011,06,13,02,06,7.30
2011,06,13,02,07,5.30
2011,06,13,02,08,5.30
2011,06,13,02,09,5.50
2011,06,13,02,10,7.00
2011,06,13,02,11,5.80
2011,06,13,02,12,8.60
2011,06,13,02,13,7.10
2011,06,13,02,14,5.30
2011,06,13,02,15,4.20
2011,06,13,02,16,1.30
2011,06,13,02,17,1.70
2011,06,13,02,18,2.10
2011,06,13,02,19,0.90
2011,06,13,02,20,4.00
2011,06,13,02,21,4.10
2011,06,13,02,22,3.50
2011,06,13,02,23,3.90
2011,06,13,02,24,3.10
2011,06,13,02,25,3.30
2011,06,13,02,26,3.50
2011,06,13,02,27,3.60
2011,06,13,02,28,2.40
2011,06,13,02,29,1.00
2011,06,13,02,30,0.10
2011,06,13,02,31,1.40
2011,06,13,02,32,4.80
2011,06,13,02,33,2.30
2011,06,13,02,34,0.70
2011,06,13,02,35,1.00
2011,06,13,02,36,2.10
2011,06,13,02,37,1.30
2011,06,13,02,38,1.80
2011,06,13,02,39,1.50
2011,06,13,02,40,3.10
2011,06,13,02,41,0.30
2011,06,13,02,42,0.00
2011,06,13,02,43,0.10
2011,06,13,02,44,0.00
2011,06,13,02,45,0.10
2011,06,13,02,46,0.00
2011,06,13,02,47,2.00
2011,06,13,02,48,3.00
2011,06,13,02,49,1.40
2011,06,13,02,50,0.50
2011,06,13,02,51,0.90
2011,06,13,02,52,2.10
2011,06,13,02,53,0.50
2011,06,13,02,54,0.10
2011,06,13,02,55,0.00
2011,06,13,02,56,0.40
2011,06,13,02,57,0.70
2011,06,13,02,58,0.00
2011,06,13,02,59,0.00
2011,06,13,03,00,0.80
2011,06,13,03,01,0.20
2011,06,13,03,02,0.00
2011,06,13,03,06,0.00
2011,06,13,03,07,0.20
2011,06,13,03,08,0.00
2011,06,13,03,09,0.00
2011,06,13,03,10,0.00
2011,06,13,03,11,0.00
2011,06,13,03,12,0.00
2011,06,13,03,13,0.00
2011,06,13,03,14,0.00
2011,06,13,03,15,0.00
2011,06,13,03,16,0.00
2011,06,13,03,17,1.60
2011,06,13,03,18,3.00
2011,06,13,03,19,2.00
2011,06,13,03,20,0.70
2011,06,13,03,21,0.00
2011,06,13,03,22,0.00
2011,06,13,03,23,0.10
2011,06,13,03,24,0.10
2011,06,13,03,25,0.10
2011,06,13,03,26,0.20
2011,06,13,03,27,1.80
2011,06,13,03,28,0.40
2011,06,13,03,29,0.20
2011,06,13,03,30,0.40
2011,06,13,03,31,1.80
2011,06,13,03,32,3.40
2011,06,13,03,33,3.50
2011,06,13,03,34,1.80
2011,06,13,03,35,2.30
2011,06,13,03,36,1.80
2011,06,13,03,37,1.30
2011,06,13,03,38,0.30
2011,06,13,03,39,0.90
2011,06,13,03,40,1.30
2011,06,13,03,41,0.40
2011,06,13,03,42,0.00
2011,06,13,03,43,0.00
2011,06,13,03,44,0.00
2011,06,13,03,45,0.00
2011,06,13,03,46,0.00
2011,06,13,03,47,0.00
2011,06,13,03,48,0.00
2011,06,13,03,49,0.00
2011,06,13,03,50,0.80
2011,06,13,03,51,1.20
2011,06,13,03,52,2.30
2011,06,13,03,53,1.70
2011,06,13,03,54,0.30
2011,06,13,03,55,0.10
2011,06,13,03,56,0.30
2011,06,13,03,57,0.20
2011,06,13,03,58,0.20
2011,06,13,03,59,1.10
2011,06,13,04,00,1.60
2011,06,13,04,01,0.50
2011,06,13,04,02,0.10
2011,06,13,04,03,0.00
2011,06,13,04,04,0.00
2011,06,13,04,05,0.00
2011,06,13,04,06,0.00
2011,06,13,04,07,0.00
2011,06,13,04,08,0.00
2011,06,13,04,09,0.00
2011,06,13,04,10,0.00
2011,06,13,04,11,0.00
2011,06,13,04,12,0.00
2011,06,13,04,13,0.00
2011,06,13,04,14,0.00
2011,06,13,04,15,0.00
2011,06,13,04,16,0.00
2011,06,13,04,17,0.00
2011,06,13,04,18,0.00
2011,06,13,04,19,0.00
2011,06,13,04,20,0.00
2011,06,13,04,21,0.10
2011,06,13,04,22,0.00
2011,06,13,04,23,1.10
2011,06,13,04,24,0.90
2011,06,13,04,25,0.40
2011,06,13,04,26,0.50
2011,06,13,04,27,0.20
2011,06,13,04,28,0.00
2011,06,13,04,29,0.00
2011,06,13,04,30,0.00
2011,06,13,04,31,0.00
2011,06,13,04,32,0.70
2011,06,13,04,33,0.70
2011,06,13,04,34,0.30
2011,06,13,04,35,0.10
2011,06,13,04,36,0.10
2011,06,13,04,37,0.00
2011,06,13,04,38,0.00
2011,06,13,04,39,0.00
2011,06,13,04,40,0.00
2011,06,13,04,41,0.00
2011,06,13,04,42,0.00
2011,06,13,04,43,0.10
2011,06,13,04,44,0.00
2011,06,13,04,45,0.00
2011,06,13,04,46,0.00
2011,06,13,04,47,0.00
2011,06,13,04,48,0.00
2011,06,13,04,49,0.00
2011,06,13,04,50,0.00
2011,06,13,04,51,0.00
2011,06,13,04,52,0.00
2011,06,13,04,53,0.00
2011,06,13,04,54,0.00
2011,06,13,04,55,0.10
2011,06,13,04,56,0.00
2011,06,13,04,57,0.00
2011,06,13,04,58,0.00
2011,06,13,04,59,0.00
2011,06,13,05,00,0.00
2011,06,13,05,01,0.00
2011,06,13,05,02,0.00
2011,06,13,05,03,1.30
2011,06,13,05,04,1.20
2011,06,13,05,05,1.20
2011,06,13,05,06,0.10
2011,06,13,05,07,0.00
2011,06,13,05,08,0.00
2011,06,13,05,09,0.00
2011,06,13,05,10,0.00
2011,06,13,05,11,0.00
2011,06,13,05,12,0.00
2011,06,13,05,13,0.00
2011,06,13,05,14,0.00
2011,06,13,05,15,0.00
2011,06,13,05,16,0.00
2011,06,13,05,17,0.00
2011,06,13,05,18,0.00
2011,06,13,05,19,0.00
2011,06,13,05,20,0.00
2011,06,13,05,21,0.00
2011,06,13,05,22,0.00
2011,06,13,05,23,0.00
2011,06,13,05,24,0.00
2011,06,13,05,25,0.00
2011,06,13,05,26,0.00
2011,06,13,05,27,0.00
2011,06,13,05,28,0.00
2011,06,13,05,29,0.00
2011,06,13,05,30,0.00
2011,06,13,05,31,0.00
2011,06,13,05,32,0.00
2011,06,13,05,33,0.00
2011,06,13,05,34,0.20
2011,06,13,05,35,0.20
2011,06,13,05,36,0.50
2011,06,13,05,37,1.30
2011,06,13,05,38,2.60
2011,06,13,05,39,0.50
2011,06,13,05,40,0.40
2011,06,13,05,41,0.20
2011,06,13,05,42,0.00
2011,06,13,05,43,0.00
2011,06,13,05,44,0.10
2011,06,13,05,45,0.00
2011,06,13,05,46,0.00
2011,06,13,05,47,0.00
2011,06,13,05,48,0.30
2011,06,13,05,49,0.50
2011,06,13,05,50,0.00
2011,06,13,05,51,0.20
2011,06,13,05,52,0.00
2011,06,13,05,53,0.20
2011,06,13,05,54,0.10
2011,06,13,05,55,0.40
2011,06,13,05,56,1.10
2011,06,13,05,57,1.20
2011,06,13,05,58,0.30
2011,06,13,05,59,0.80
2011,06,13,06,00,0.20
2011,06,13,06,01,0.00
2011,06,13,06,02,0.80
2011,06,13,06,03,0.10
2011,06,13,06,04,1.30
2011,06,13,06,05,1.10
2011,06,13,06,06,0.80
2011,06,13,06,07,0.60
2011,06,13,06,08,0.50
2011,06,13,06,09,0.10
2011,06,13,06,10,0.20
2011,06,13,06,11,0.20
2011,06,13,06,12,0.00
2011,06,13,06,13,0.00
2011,06,13,06,14,0.00
2011,06,13,06,15,0.00
2011,06,13,06,16,0.00
2011,06,13,06,17,0.00
2011,06,13,06,18,0.20
2011,06,13,06,19,0.00
2011,06,13,06,20,0.10
2011,06,13,06,21,0.10
2011,06,13,06,22,0.00
2011,06,13,06,23,0.10
2011,06,13,06,24,0.30
2011,06,13,06,25,0.00
2011,06,13,06,26,0.00
2011,06,13,06,27,0.00
2011,06,13,06,28,0.00
2011,06,13,06,29,0.00
2011,06,13,06,30,0.00
2011,06,13,06,31,0.20
2011,06,13,06,32,0.10
2011,06,13,06,33,0.00
2011,06,13,06,34,0.00
2011,06,13,06,35,0.00
2011,06,13,06,36,0.30
2011,06,13,06,37,0.40
2011,06,13,06,38,0.10
2011,06,13,06,39,2.20
2011,06,13,06,40,1.20
2011,06,13,06,41,0.80
2011,06,13,06,42,0.00
2011,06,13,06,43,0.10
2011,06,13,06,44,0.20
2011,06,13,06,45,0.00
2011,06,13,06,46,0.50
2011,06,13,06,47,0.50
2011,06,13,06,48,0.70
2011,06,13,06,49,0.00
2011,06,13,06,50,0.30
2011,06,13,06,51,0.40
2011,06,13,06,52,0.00
2011,06,13,06,53,0.00
2011,06,13,06,54,0.10
2011,06,13,06,55,1.20
2011,06,13,06,56,0.10
2011,06,13,06,57,0.00
2011,06,13,06,58,1.40
2011,06,13,06,59,1.70
2011,06,13,07,00,2.10
2011,06,13,07,01,1.50
2011,06,13,07,02,1.60
2011,06,13,07,03,0.50
2011,06,13,07,04,0.00
2011,06,13,07,05,0.00
2011,06,13,07,06,0.00
2011,06,13,07,07,0.00
2011,06,13,07,08,0.00
2011,06,13,07,09,0.00
2011,06,13,07,10,0.50
2011,06,13,07,11,2.00
2011,06,13,07,12,3.00
2011,06,13,07,13,2.40
2011,06,13,07,14,1.60
2011,06,13,07,15,0.80
2011,06,13,07,16,0.90
2011,06,13,07,17,0.20
2011,06,13,07,18,2.40
2011,06,13,07,19,2.80
2011,06,13,07,20,2.60
2011,06,13,07,21,2.40
2011,06,13,07,22,1.90
2011,06,13,07,23,0.10
2011,06,13,07,24,0.50
2011,06,13,07,25,2.40
2011,06,13,07,26,1.50
2011,06,13,07,27,1.50
2011,06,13,07,28,1.20
2011,06,13,07,29,1.10
2011,06,13,07,30,1.50
2011,06,13,07,31,0.50
2011,06,13,07,32,0.00
2011,06,13,07,33,0.00
2011,06,13,07,34,0.40
2011,06,13,07,35,0.00
2011,06,13,07,36,0.70
2011,06,13,07,37,1.50
2011,06,13,07,38,0.90
2011,06,13,07,39,1.20
2011,06,13,07,40,0.70
2011,06,13,07,41,0.20
2011,06,13,07,42,0.00
2011,06,13,07,43,0.10
2011,06,13,07,44,0.30
2011,06,13,07,45,0.40
2011,06,13,07,46,0.50
2011,06,13,07,47,0.10
2011,06,13,07,48,0.00
2011,06,13,07,49,0.00
2011,06,13,07,50,0.00
2011,06,13,07,51,0.00
2011,06,13,07,52,0.10
2011,06,13,07,53,0.00
2011,06,13,07,54,0.00
2011,06,13,07,55,0.00
2011,06,13,07,56,0.00
2011,06,13,07,57,0.00
2011,06,13,07,58,0.00
2011,06,13,07,59,0.00
2011,06,13,08,00,0.00
2011,06,13,08,01,0.00
2011,06,13,08,02,0.00
2011,06,13,08,03,0.10
2011,06,13,08,04,0.00
2011,06,13,08,05,0.10
2011,06,13,08,06,0.00
2011,06,13,08,07,0.00
2011,06,13,08,08,0.00
2011,06,13,08,09,0.00
2011,06,13,08,10,0.00
2011,06,13,08,11,1.00
2011,06,13,08,12,1.30
2011,06,13,08,13,0.40
2011,06,13,08,14,1.50
2011,06,13,08,15,0.40
2011,06,13,08,16,0.30
2011,06,13,08,17,1.90
2011,06,13,08,18,2.00
2011,06,13,08,19,1.20
2011,06,13,08,20,2.70
2011,06,13,08,21,1.80
2011,06,13,08,22,2.30
2011,06,13,08,23,2.40
2011,06,13,08,24,0.90
2011,06,13,08,25,0.70
2011,06,13,08,26,1.10
2011,06,13,08,27,1.30
2011,06,13,08,28,1.20
2011,06,13,08,29,0.40
2011,06,13,08,30,0.80
2011,06,13,08,31,1.80
2011,06,13,08,32,1.60
2011,06,13,08,33,2.80
2011,06,13,08,34,1.50
2011,06,13,08,35,1.70
2011,06,13,08,36,1.80
2011,06,13,08,37,1.80
2011,06,13,08,38,0.40
2011,06,13,08,39,1.50
2011,06,13,08,40,3.50
2011,06,13,08,41,2.20
2011,06,13,08,42,2.40
2011,06,13,08,43,3.50
2011,06,13,08,44,2.50
2011,06,13,08,45,0.60
2011,06,13,08,46,3.40
2011,06,13,08,47,1.80
2011,06,13,08,48,1.00
2011,06,13,08,49,0.10
2011,06,13,08,50,2.10
2011,06,13,08,51,1.40
2011,06,13,08,52,3.20
2011,06,13,08,53,1.20
2011,06,13,08,54,2.50
2011,06,13,08,55,1.00
2011,06,13,08,56,1.60
2011,06,13,08,57,2.10
2011,06,13,08,58,1.30
2011,06,13,08,59,2.60
2011,06,13,09,00,0.60
2011,06,13,09,01,1.20
2011,06,13,09,02,1.40
2011,06,13,09,03,0.30
2011,06,13,09,04,0.20
2011,06,13,09,05,2.30
2011,06,13,09,06,1.70
2011,06,13,09,07,0.20
2011,06,13,09,08,1.00
2011,06,13,09,09,1.50
2011,06,13,09,10,2.30
2011,06,13,09,11,0.80
2011,06,13,09,12,0.20
2011,06,13,09,13,0.00
2011,06,13,09,14,0.00
2011,06,13,09,15,0.20
2011,06,13,09,16,0.10
2011,06,13,09,17,1.00
2011,06,13,09,18,1.20
2011,06,13,09,19,2.70
2011,06,13,09,20,1.60
2011,06,13,09,21,1.20
2011,06,13,09,22,0.90
2011,06,13,09,23,0.20
2011,06,13,09,24,0.20
2011,06,13,09,25,0.80
2011,06,13,09,26,0.20
2011,06,13,09,27,0.00
2011,06,13,09,28,0.10
2011,06,13,09,29,1.00
2011,06,13,09,30,3.10
2011,06,13,09,31,1.70
2011,06,13,09,32,1.70
2011,06,13,09,33,1.60
2011,06,13,09,34,0.70
2011,06,13,09,35,0.40
2011,06,13,09,36,1.50
2011,06,13,09,37,0.80
2011,06,13,09,38,0.70
2011,06,13,09,39,0.10
2011,06,13,09,40,1.60
2011,06,13,09,41,0.70
2011,06,13,09,42,0.40
2011,06,13,09,43,0.60
2011,06,13,09,44,2.00
2011,06,13,09,45,3.00
2011,06,13,09,46,1.80
2011,06,13,09,47,0.80
2011,06,13,09,48,2.10
2011,06,13,09,49,1.20
2011,06,13,09,50,0.10
2011,06,13,09,51,0.50
2011,06,13,09,52,1.00
2011,06,13,09,53,0.20
2011,06,13,09,54,1.60
2011,06,13,09,55,4.10
2011,06,13,09,56,2.60
2011,06,13,09,57,3.40
2011,06,13,09,58,2.40
2011,06,13,09,59,1.50
2011,06,13,10,00,3.00
2011,06,13,10,01,4.80
2011,06,13,10,02,4.80
2011,06,13,10,03,1.90
2011,06,13,10,04,1.40
2011,06,13,10,05,2.30
2011,06,13,10,06,0.40
2011,06,13,10,07,1.80
2011,06,13,10,08,1.20
2011,06,13,10,09,2.40
2011,06,13,10,10,0.30
2011,06,13,10,11,0.00
2011,06,13,10,12,3.20
2011,06,13,10,13,3.90
2011,06,13,10,14,4.70
2011,06,13,10,15,5.00
2011,06,13,10,16,3.80
2011,06,13,10,17,3.20
2011,06,13,10,18,1.10
2011,06,13,10,19,0.80
2011,06,13,10,20,4.00
2011,06,13,10,21,2.20
2011,06,13,10,22,2.70
2011,06,13,10,23,3.90
2011,06,13,10,24,2.30
2011,06,13,10,25,4.40
2011,06,13,10,26,1.80
2011,06,13,10,27,2.70
2011,06,13,10,28,1.30
2011,06,13,10,29,0.50
2011,06,13,10,30,5.00
2011,06,13,10,31,4.40
2011,06,13,10,32,3.80
2011,06,13,10,33,3.20
2011,06,13,10,34,3.10
2011,06,13,10,35,1.40
2011,06,13,10,36,0.80
2011,06,13,10,37,2.10
2011,06,13,10,38,1.90
2011,06,13,10,39,0.00
2011,06,13,10,40,3.00
2011,06,13,10,41,2.10
2011,06,13,10,42,1.80
2011,06,13,10,43,1.90
2011,06,13,10,44,0.20
2011,06,13,10,45,0.70
2011,06,13,10,46,1.10
2011,06,13,10,47,2.70
2011,06,13,10,48,4.30
2011,06,13,10,49,2.80
2011,06,13,10,50,7.10
2011,06,13,10,51,10.00
2011,06,13,10,52,10.10
2011,06,13,10,53,10.50
2011,06,13,10,54,13.20
2011,06,13,10,55,6.80
2011,06,13,10,56,5.60
2011,06,13,10,57,5.40
2011,06,13,10,58,11.00
2011,06,13,10,59,7.20
2011,06,13,11,00,6.40
2011,06,13,11,01,8.20
2011,06,13,11,02,9.40
2011,06,13,11,03,8.20
2011,06,13,11,04,11.30
2011,06,13,11,05,12.00
2011,06,13,11,06,13.00
2011,06,13,11,07,15.90
2011,06,13,11,08,15.30
2011,06,13,11,09,17.50
2011,06,13,11,10,13.40
2011,06,13,11,11,18.50
2011,06,13,11,12,19.70
2011,06,13,11,13,19.60
2011,06,13,11,14,19.20
2011,06,13,11,15,18.70
2011,06,13,11,16,14.90
2011,06,13,11,17,17.90
2011,06,13,11,18,20.40
2011,06,13,11,19,15.30
2011,06,13,11,20,20.20
2011,06,13,11,21,14.90
2011,06,13,11,22,19.50
2011,06,13,11,23,16.20
2011,06,13,11,24,17.70
2011,06,13,11,25,20.70
2011,06,13,11,26,21.80
2011,06,13,11,27,21.90
2011,06,13,11,28,19.70
2011,06,13,11,29,16.20
2011,06,13,11,30,12.50
2011,06,13,11,31,15.50
2011,06,13,11,32,16.20
2011,06,13,11,33,10.80
2011,06,13,11,34,12.20
2011,06,13,11,35,13.50
2011,06,13,11,36,21.70
2011,06,13,11,37,18.40
2011,06,13,11,38,18.70
2011,06,13,11,39,14.70
2011,06,13,11,40,16.20
2011,06,13,11,41,15.30
2011,06,13,11,42,14.30
2011,06,13,11,43,19.10
2011,06,13,11,44,12.30
2011,06,13,11,45,8.60
2011,06,13,11,46,13.60
2011,06,13,11,47,18.70
2011,06,13,11,48,17.00
2011,06,13,11,49,14.00
2011,06,13,11,50,11.20
2011,06,13,11,51,15.50
2011,06,13,11,52,15.80
2011,06,13,11,53,13.10
2011,06,13,11,54,17.70
2011,06,13,11,55,12.90
2011,06,13,11,56,15.40
2011,06,13,11,57,18.00
2011,06,13,11,58,14.30
2011,06,13,11,59,11.40
2011,06,13,12,00,13.30
2011,06,13,12,01,13.30
2011,06,13,12,02,16.20
2011,06,13,12,03,18.50
2011,06,13,12,04,16.40
2011,06,13,12,05,13.20
2011,06,13,12,06,11.30
2011,06,13,12,07,11.50
2011,06,13,12,08,12.00
2011,06,13,12,09,13.30
2011,06,13,12,10,16.90
2011,06,13,12,11,12.30
2011,06,13,12,12,14.40
2011,06,13,12,13,13.40
2011,06,13,12,14,20.40
2011,06,13,12,15,17.00
2011,06,13,12,16,14.30
2011,06,13,12,17,18.60
2011,06,13,12,18,24.00
2011,06,13,12,19,19.20
2011,06,13,12,20,17.20
2011,06,13,12,21,22.10
2011,06,13,12,22,17.90
2011,06,13,12,23,21.20
2011,06,13,12,24,12.90
2011,06,13,12,25,15.90
2011,06,13,12,26,20.20
2011,06,13,12,27,12.90
2011,06,13,12,28,15.10
2011,06,13,12,29,16.20
2011,06,13,12,30,14.90
2011,06,13,12,31,16.30
2011,06,13,12,32,16.30
2011,06,13,12,33,20.70
2011,06,13,12,34,22.80
2011,06,13,12,35,20.80
2011,06,13,12,36,13.20
2011,06,13,12,37,12.90
2011,06,13,12,38,22.00
2011,06,13,12,39,25.30
2011,06,13,12,40,16.80
2011,06,13,12,41,19.50
2011,06,13,12,42,13.90
2011,06,13,12,43,11.40
2011,06,13,12,44,11.60
2011,06,13,12,45,8.90
2011,06,13,12,46,9.90
2011,06,13,12,47,12.60
2011,06,13,12,48,20.50
2011,06,13,12,49,19.10
2011,06,13,12,50,18.10
2011,06,13,12,51,19.10
2011,06,13,12,52,16.60
2011,06,13,12,53,16.30
2011,06,13,12,54,17.40
2011,06,13,12,55,21.10
2011,06,13,12,56,10.70
2011,06,13,12,57,15.60
2011,06,13,12,58,20.50
2011,06,13,12,59,19.50
2011,06,13,13,00,16.50
2011,06,13,13,01,15.60
2011,06,13,13,02,16.20
2011,06,13,13,03,21.40
2011,06,13,13,04,17.50
2011,06,13,13,05,20.80
2011,06,13,13,06,20.30
2011,06,13,13,07,13.00
2011,06,13,13,08,17.30
2011,06,13,13,09,20.70
2011,06,13,13,10,20.50
2011,06,13,13,11,21.20
2011,06,13,13,12,18.80
2011,06,13,13,13,15.90
2011,06,13,13,14,17.40
2011,06,13,13,15,15.40
2011,06,13,13,16,12.30
2011,06,13,13,17,17.40
2011,06,13,13,18,15.40
2011,06,13,13,19,18.60
2011,06,13,13,20,14.90
2011,06,13,13,21,13.60
2011,06,13,13,22,15.80
2011,06,13,13,23,9.00
2011,06,13,13,24,12.90
2011,06,13,13,25,18.40
2011,06,13,13,26,7.10
2011,06,13,13,27,10.90
2011,06,13,13,28,11.00
2011,06,13,13,29,9.70
2011,06,13,13,30,14.30
2011,06,13,13,31,11.00
2011,06,13,13,32,16.10
2011,06,13,13,33,12.80
2011,06,13,13,34,17.90
2011,06,13,13,35,19.30
2011,06,13,13,36,12.00
2011,06,13,13,37,12.60
2011,06,13,13,38,19.70
2011,06,13,13,39,14.20
2011,06,13,13,40,12.50
2011,06,13,13,41,17.90
2011,06,13,13,42,17.70
2011,06,13,13,43,15.80
2011,06,13,13,44,14.90
2011,06,13,13,45,14.30
2011,06,13,13,46,14.00
2011,06,13,13,47,13.30
2011,06,13,13,48,18.00
2011,06,13,13,49,15.40
2011,06,13,13,50,16.80
2011,06,13,13,51,14.70
2011,06,13,13,52,13.50
2011,06,13,13,53,13.20
2011,06,13,13,54,17.30
2011,06,13,13,55,18.40
2011,06,13,13,56,23.80
2011,06,13,13,57,16.60
2011,06,13,13,58,17.10
2011,06,13,13,59,22.80
2011,06,13,14,00,15.70
2011,06,13,14,01,15.30
2011,06,13,14,02,13.40
2011,06,13,14,03,17.10
2011,06,13,14,04,18.20
2011,06,13,14,05,16.60
2011,06,13,14,06,19.60
2011,06,13,14,07,25.70
2011,06,13,14,08,22.80
2011,06,13,14,09,19.60
2011,06,13,14,10,20.50
2011,06,13,14,11,17.80
2011,06,13,14,12,20.70
2011,06,13,14,13,22.20
2011,06,13,14,14,20.70
2011,06,13,14,15,20.80
2011,06,13,14,16,19.60
2011,06,13,14,17,22.60
2011,06,13,14,18,23.10
2011,06,13,14,19,23.60
2011,06,13,14,20,16.40
2011,06,13,14,21,20.80
2011,06,13,14,22,25.20
2011,06,13,14,23,21.30
2011,06,13,14,24,19.00
2011,06,13,14,25,18.00
2011,06,13,14,26,19.60
2011,06,13,14,27,24.40
2011,06,13,14,28,21.80
2011,06,13,14,29,20.20
2011,06,13,14,30,17.40
2011,06,13,14,31,16.30
2011,06,13,14,32,24.70
2011,06,13,14,33,25.00
2011,06,13,14,34,19.30
2011,06,13,14,35,15.80
2011,06,13,14,36,15.60
2011,06,13,14,37,16.80
2011,06,13,14,38,16.90
2011,06,13,14,39,16.60
2011,06,13,14,40,16.10
2011,06,13,14,41,15.20
2011,06,13,14,42,15.30
2011,06,13,14,43,22.00
2011,06,13,14,44,21.80
2011,06,13,14,45,21.20
2011,06,13,14,46,20.10
2011,06,13,14,47,15.00
2011,06,13,14,48,18.60
2011,06,13,14,49,16.10
2011,06,13,14,50,22.20
2011,06,13,14,51,19.00
2011,06,13,14,52,21.60
2011,06,13,14,53,15.70
2011,06,13,14,54,19.90
2011,06,13,14,55,13.80
2011,06,13,14,56,16.20
2011,06,13,14,57,21.90
2011,06,13,14,58,14.40
2011,06,13,14,59,18.60
2011,06,13,15,00,16.30
2011,06,13,15,01,20.60
2011,06,13,15,02,18.20
2011,06,13,15,03,9.80
2011,06,13,15,04,21.70
2011,06,13,15,05,20.10
2011,06,13,15,06,14.60
2011,06,13,15,07,18.40
2011,06,13,15,08,10.70
2011,06,13,15,09,9.60
2011,06,13,15,10,13.50
2011,06,13,15,11,16.60
2011,06,13,15,12,12.50
2011,06,13,15,13,13.90
2011,06,13,15,14,13.30
2011,06,13,15,15,19.20
2011,06,13,15,16,21.20
2011,06,13,15,17,20.20
2011,06,13,15,18,21.80
2011,06,13,15,19,17.90
2011,06,13,15,20,19.50
2011,06,13,15,21,21.40
2011,06,13,15,22,20.10
2011,06,13,15,23,23.00
2011,06,13,15,24,18.10
2011,06,13,15,25,23.60
2011,06,13,15,26,18.50
2011,06,13,15,27,15.40
2011,06,13,15,28,20.10
2011,06,13,15,29,20.20
2011,06,13,15,30,19.60
2011,06,13,15,31,16.30
2011,06,13,15,32,19.40
2011,06,13,15,33,22.30
2011,06,13,15,34,21.50
2011,06,13,15,35,27.40
2011,06,13,15,36,18.00
2011,06,13,15,37,17.00
2011,06,13,15,38,21.30
2011,06,13,15,39,17.40
2011,06,13,15,40,19.40
2011,06,13,15,41,23.10
2011,06,13,15,42,26.50
2011,06,13,15,43,26.40
2011,06,13,15,44,23.50
2011,06,13,15,45,21.10
2011,06,13,15,46,22.20
2011,06,13,15,47,21.00
2011,06,13,15,48,17.50
2011,06,13,15,49,18.20
2011,06,13,15,50,19.20
2011,06,13,15,51,23.50
2011,06,13,15,52,24.30
2011,06,13,15,53,26.70
2011,06,13,15,54,20.60
2011,06,13,15,55,17.70
2011,06,13,15,56,18.30
2011,06,13,15,57,27.50
2011,06,13,15,58,32.80
2011,06,13,15,59,20.70
2011,06,13,16,00,23.50
2011,06,13,16,01,18.20
2011,06,13,16,02,18.20
2011,06,13,16,03,15.90
2011,06,13,16,04,20.00
2011,06,13,16,05,23.10
2011,06,13,16,06,20.90
2011,06,13,16,07,17.60
2011,06,13,16,08,22.60
2011,06,13,16,09,19.80
2011,06,13,16,10,15.00
2011,06,13,16,11,21.80
2011,06,13,16,12,17.90
2011,06,13,16,13,17.80
2011,06,13,16,14,16.10
2011,06,13,16,15,21.60
2011,06,13,16,16,16.70
2011,06,13,16,17,22.20
2011,06,13,16,18,20.90
2011,06,13,16,19,16.10
2011,06,13,16,20,13.30
2011,06,13,16,21,16.20
2011,06,13,16,22,18.50
2011,06,13,16,23,22.50
2011,06,13,16,24,17.10
2011,06,13,16,25,19.80
2011,06,13,16,26,23.50
2011,06,13,16,27,20.30
2011,06,13,16,28,23.40
2011,06,13,16,29,27.70
2011,06,13,16,30,21.10
2011,06,13,16,31,19.70
2011,06,13,16,32,24.20
2011,06,13,16,33,16.90
2011,06,13,16,34,19.40
2011,06,13,16,35,19.70
2011,06,13,16,36,25.90
2011,06,13,16,37,20.60
2011,06,13,16,38,18.60
2011,06,13,16,39,21.80
2011,06,13,16,40,23.80
2011,06,13,16,41,26.30
2011,06,13,16,42,24.60
2011,06,13,16,43,25.40
2011,06,13,16,44,21.10
2011,06,13,16,45,20.90
2011,06,13,16,46,24.00
2011,06,13,16,47,22.70
2011,06,13,16,48,26.50
2011,06,13,16,49,24.40
2011,06,13,16,50,25.30
2011,06,13,16,51,25.00
2011,06,13,16,52,25.70
2011,06,13,16,53,19.80
2011,06,13,16,54,22.40
2011,06,13,16,55,20.10
2011,06,13,16,56,17.00
2011,06,13,16,57,22.80
2011,06,13,16,58,18.30
2011,06,13,16,59,23.40
2011,06,13,17,00,24.80
2011,06,13,17,01,23.70
2011,06,13,17,02,27.60
2011,06,13,17,03,20.20
2011,06,13,17,04,26.70
2011,06,13,17,05,20.80
2011,06,13,17,06,19.50
2011,06,13,17,07,17.30
2011,06,13,17,08,17.60
2011,06,13,17,09,12.60
2011,06,13,17,10,17.90
2011,06,13,17,11,19.20
2011,06,13,17,12,17.60
2011,06,13,17,13,24.10
2011,06,13,17,14,21.00
2011,06,13,17,15,18.30
2011,06,13,17,16,17.50
2011,06,13,17,17,25.10
2011,06,13,17,18,23.60
2011,06,13,17,19,19.80
2011,06,13,17,20,13.70
2011,06,13,17,21,19.70
2011,06,13,17,22,23.10
2011,06,13,17,23,21.20
2011,06,13,17,24,14.30
2011,06,13,17,25,13.10
2011,06,13,17,26,16.60
2011,06,13,17,27,13.00
2011,06,13,17,28,24.90
2011,06,13,17,29,23.00
2011,06,13,17,30,15.50
2011,06,13,17,31,16.90
2011,06,13,17,32,21.30
2011,06,13,17,33,15.50
2011,06,13,17,34,15.80
2011,06,13,17,35,20.00
2011,06,13,17,36,24.60
2011,06,13,17,37,22.50
2011,06,13,17,38,23.80
2011,06,13,17,39,25.80
2011,06,13,17,40,24.10
2011,06,13,17,41,25.70
2011,06,13,17,42,22.10
2011,06,13,17,43,27.70
2011,06,13,17,44,24.20
2011,06,13,17,45,19.30
2011,06,13,17,46,22.50
2011,06,13,17,47,18.10
2011,06,13,17,48,18.90
2011,06,13,17,49,18.20
2011,06,13,17,50,25.80